Content
SEND FEEDBACK

Daily
Averages
Monthly
Summary
United States of America

ANN ARBOR, MICHIGAN


Home > North America > United States > Michigan
Elevation: 759 feet     Latitude: 42 17N     Longitude: 083 43W

WEATHER
 
SELECT A DAY
Number of Records: 208,181;   Date Range: 1/1/95 - 11/27/14
 
SHARE

PRINT THIS DATA

[ ← Previous Day ]
WEATHER ALMANAC - OCTOBER 12, 2013
[ Next Day → ]
[ °C ]   °F
Weather ElementAverageHighLow
Temperature51.2 °F77 °F (3:53 pm)42.8 °F (7:37 am)
Dewpoint47.7 °F57 °F (9:53 am)42.8 °F (2:50 am)
Humidity90 %100 % (12:37 am)33 % (3:53 pm)
Barometer30.09 in30.12 in (7:53 am)30.05 in (2:53 pm)
Wind Speed0.8 mph10.4 mph (3:53 pm)
Weather ElementAverage
Visibility3.7 mi
Wind DirectionNNE (12.2 °)

Weather ElementTotal
Precipitation---
Heating Degree Days5.1 (Base 65)
Growing Degree Days9.9 (Base 50)
Averaged from 76 records on October 12, 2013
WEATHER CONDITIONS BREAKOUT
WIND DIRECTION BREAKOUT
WEATHER BY HOUR - OCTOBER 12, 2013
[ °C ]   °F
Local TimeTemperatureDewpointHumidityBarometerVisibilityWind DirectionWind SpeedGust SpeedPrecipitationEventsConditions
12:26 AM46.4 °F44.6 °F93 %30.09 in0.2 miCalmFogFog
12:37 AM46.4 °F46.4 °F100 %30.09 in2.5 miCalmPartly Cloudy
12:44 AM48.2 °F46.4 °F93 %30.09 in7.0 miCalmPartly Cloudy
12:51 AM46.4 °F46.4 °F100 %30.09 in1.2 miCalmClear
12:53 AM46.0 °F46.0 °F100 %30.09 in1.0 miCalmClear
1:00 AM44.6 °F44.6 °F100 %30.09 in0.8 miCalmClear
1:06 AM46.4 °F44.6 °F93 %30.09 in1.5 miCalmClear
1:12 AM46.4 °F44.6 °F93 %30.09 in3.0 miCalmClear
1:24 AM46.4 °F46.4 °F100 %30.09 in7.0 miCalmPartly Cloudy
1:35 AM44.6 °F44.6 °F100 %30.09 in1.8 miCalmClear
1:45 AM44.6 °F44.6 °F100 %30.09 in3.0 miCalmClear
1:53 AM46.0 °F44.1 °F93 %30.09 in6.0 miCalmPartly Cloudy
1:55 AM46.4 °F44.6 °F93 %30.09 in1.2 miCalmScattered Clouds
2:02 AM46.4 °F44.6 °F93 %30.09 in0.2 miCalmFogFog
2:27 AM44.6 °F44.6 °F100 %30.09 in1.5 miCalmScattered Clouds
2:29 AM44.6 °F44.6 °F100 %30.09 in3.0 miCalmScattered Clouds
2:32 AM46.4 °F44.6 °F93 %30.09 in1.2 miCalmScattered Clouds
2:39 AM46.4 °F44.6 °F93 %30.09 in0.2 miCalmFogFog
2:50 AM44.6 °F42.8 °F93 %30.09 in1.2 miCalmPartly Cloudy
2:53 AM44.1 °F43.0 °F96 %30.09 in5.0 miCalmPartly Cloudy
3:11 AM46.4 °F44.6 °F93 %30.09 in1.5 miCalmClear
3:13 AM46.4 °F44.6 °F93 %30.09 in0.8 miCalmClear
3:23 AM46.4 °F44.6 °F93 %30.09 in1.8 miCalmClear
3:25 AM46.4 °F44.6 °F93 %30.09 in3.0 miCalmClear
3:43 AM44.6 °F44.6 °F100 %30.09 in2.5 miCalmClear
3:51 AM44.6 °F44.6 °F100 %30.09 in9.0 miCalmClear
3:53 AM44.1 °F44.1 °F100 %30.09 in9.0 miCalmClear
3:56 AM44.6 °F42.8 °F93 %30.09 in1.2 miCalmClear
4:03 AM44.6 °F42.8 °F93 %30.09 in0.2 miCalmFogFog
4:33 AM46.4 °F44.6 °F93 %30.10 in1.5 miCalmClear
4:40 AM44.6 °F44.6 °F100 %30.10 in3.0 miCalmClear
4:53 AM45.0 °F44.1 °F97 %30.09 in5.0 miNE (50°)3.5 mphClear
5:31 AM44.6 °F44.6 °F100 %30.09 in1.8 miCalmClear
5:42 AM44.6 °F44.6 °F100 %30.10 in3.0 miCalmClear
5:53 AM45.0 °F43.0 °F93 %30.10 in2.5 miCalmClear
6:16 AM44.6 °F42.8 °F93 %30.10 in4.0 miCalmClear
6:29 AM46.4 °F44.6 °F93 %30.10 in1.8 miCalmClear
6:32 AM44.6 °F44.6 °F100 %30.10 in0.8 miCalmClear
6:53 AM44.1 °F44.1 °F100 %30.11 in0.2 miCalmFogFog
7:01 AM44.6 °F42.8 °F93 %30.10 in1.5 miCalmClear
7:03 AM44.6 °F42.8 °F93 %30.10 in4.0 miCalmClear
7:16 AM44.6 °F42.8 °F93 %30.11 in2.0 miCalmPartly Cloudy
7:18 AM44.6 °F42.8 °F93 %30.11 in0.5 miCalmFogFog
7:30 AM46.4 °F44.6 °F93 %30.11 in2.0 miCalmPartly Cloudy
7:37 AM42.8 °F42.8 °F100 %30.11 in3.0 miCalmPartly Cloudy
7:40 AM42.8 °F42.8 °F100 %30.11 in1.8 miCalmPartly Cloudy
7:53 AM44.1 °F43.0 °F96 %30.12 in2.0 miCalmClear
8:03 AM44.6 °F44.6 °F100 %30.11 in5.0 miCalmClear
8:53 AM53.1 °F52.0 °F96 %30.12 in5.0 miCalmPartly Cloudy
9:06 AM55.4 °F53.6 °F94 %30.11 in2.5 miCalmMostly Cloudy
9:14 AM55.4 °F53.6 °F94 %30.11 in1.2 miCalmMostly Cloudy
9:25 AM55.4 °F53.6 °F94 %30.11 in0.8 miCalmOvercast
9:35 AM57.2 °F55.4 °F94 %30.11 in1.5 miCalmMostly Cloudy
9:41 AM57.2 °F55.4 °F94 %30.11 in2.0 miCalmScattered Clouds
9:53 AM59.0 °F57.0 °F93 %30.11 in3.0 miCalmPartly Cloudy
10:53 AM66.0 °F57.0 °F73 %30.10 in10.0 miVariable3.5 mphClear
11:53 AM70.0 °F55.0 °F59 %30.10 in10.0 miSouth (190°)5.8 mphClear
12:53 PM73.0 °F54.0 °F51 %30.09 in10.0 miSE (130°)4.6 mphClear
1:53 PM75.0 °F50.0 °F41 %30.07 in10.0 miVariable5.8 mphClear
2:53 PM75.9 °F52.0 °F43 %30.05 in10.0 miSE (130°)6.9 mphClear
3:53 PM77.0 °F46.0 °F33 %30.05 in10.0 miSE (140°)10.4 mphClear
4:53 PM75.9 °F48.0 °F37 %30.05 in10.0 miSSE (150°)9.2 mphClear
5:53 PM71.1 °F53.1 °F53 %30.05 in10.0 miVariable5.8 mphClear
6:53 PM66.9 °F53.1 °F61 %30.06 in10.0 miSE (140°)5.8 mphScattered Clouds
7:53 PM64.0 °F55.0 °F73 %30.08 in10.0 miCalmPartly Cloudy
8:53 PM61.0 °F55.0 °F81 %30.09 in10.0 miCalmScattered Clouds
9:53 PM62.1 °F57.0 °F84 %30.09 in10.0 miCalmPartly Cloudy
10:53 PM55.0 °F54.0 °F96 %30.09 in2.5 miCalmClear
11:01 PM55.4 °F55.4 °F100 %30.10 in1.2 miCalmClear
11:13 PM55.4 °F53.6 °F94 %30.10 in2.0 miCalmClear
11:23 PM53.6 °F51.8 °F94 %30.10 in5.0 miCalmClear
11:31 PM53.6 °F53.6 °F100 %30.10 in1.8 miCalmClear
11:34 PM53.6 °F53.6 °F100 %30.10 in0.8 miCalmClear
11:46 PM53.6 °F53.6 °F100 %30.09 in1.2 miCalmPartly Cloudy
11:48 PM55.4 °F53.6 °F94 %30.10 in2.0 miCalmPartly Cloudy
11:53 PM54.0 °F53.1 °F97 %30.09 in2.5 miCalmScattered Clouds
Hourly data recorded from KARB, located miles away from Ann Arbor, Michigan







STORIES FROM OUR PARTNERS